Hourly Weather Kissimmee

Today, 19 October, Monday

Time Temperature Precipitation Wind Pressure Humidity
00:00 +26°C° 0.1 mm 5 mps 761 mmHg 84%
01:00 +26°C° 0 mm 4 mps 761 mmHg 84%
02:00 +26°C° 0 mm 4 mps 761 mmHg 83%
03:00 +25°C° 0 mm 4 mps 760 mmHg 83%
04:00 +25°C° 0 mm 5 mps 760 mmHg 82%
05:00 +25°C° 0 mm 5 mps 760 mmHg 84%
06:00 +25°C° 0 mm 4 mps 760 mmHg 86%
07:00 +25°C° 0 mm 4 mps 760 mmHg 87%
08:00 +27°C° 0.1 mm 5 mps 761 mmHg 82%
09:00 +28°C° 0.1 mm 6 mps 761 mmHg 76%
10:00 +30°C° 0.1 mm 7 mps 761 mmHg 71%
11:00 +30°C° 0.6 mm 7 mps 761 mmHg 69%
12:00 +30°C° 0.6 mm 7 mps 760 mmHg 68%
13:00 +32°C° 0.6 mm 6 mps 760 mmHg 66%
14:00 +30°C° 0.7 mm 6 mps 760 mmHg 68%
15:00 +30°C° 0.7 mm 6 mps 759 mmHg 69%
16:00 +29°C° 0.7 mm 6 mps 759 mmHg 71%
17:00 +29°C° 0.2 mm 5 mps 759 mmHg 75%
18:00 +28°C° 0.2 mm 5 mps 759 mmHg 79%
19:00 +27°C° 0.2 mm 4 mps 759 mmHg 83%
20:00 +27°C° 0.3 mm 4 mps 760 mmHg 84%
21:00 +26°C° 0.3 mm 4 mps 760 mmHg 85%
22:00 +26°C° 0.3 mm 4 mps 760 mmHg 87%
23:00 +26°C° 0.1 mm 3 mps 760 mmHg 87%

Tomorrow, 20 October, Tuesday

Time Temperature Precipitation Wind Pressure Humidity
00:00 +26°C° 0.1 mm 3 mps 760 mmHg 87%
01:00 +26°C° 0.1 mm 3 mps 760 mmHg 87%
02:00 +26°C° 0 mm 3 mps 759 mmHg 87%
03:00 +26°C° 0 mm 3 mps 759 mmHg 88%
04:00 +26°C° 0 mm 3 mps 759 mmHg 88%
05:00 +26°C° 0 mm 3 mps 759 mmHg 88%
06:00 +26°C° 0 mm 3 mps 759 mmHg 88%
07:00 +26°C° 0 mm 3 mps 759 mmHg 88%
08:00 +27°C° 0.1 mm 4 mps 759 mmHg 81%
09:00 +29°C° 0.1 mm 5 mps 759 mmHg 74%
10:00 +30°C° 0.1 mm 6 mps 760 mmHg 68%
11:00 +30°C° 0.6 mm 6 mps 760 mmHg 67%
12:00 +32°C° 0.6 mm 6 mps 759 mmHg 66%
13:00 +32°C° 0.6 mm 6 mps 759 mmHg 65%
14:00 +30°C° 1.2 mm 5 mps 759 mmHg 67%
15:00 +29°C° 1.2 mm 5 mps 758 mmHg 70%
16:00 +29°C° 1.2 mm 4 mps 758 mmHg 72%
17:00 +28°C° 0.1 mm 4 mps 758 mmHg 75%
18:00 +27°C° 0.1 mm 4 mps 759 mmHg 77%
19:00 +27°C° 0.1 mm 4 mps 759 mmHg 80%
20:00 +26°C° 0.1 mm 4 mps 759 mmHg 80%
21:00 +26°C° 0.1 mm 3 mps 759 mmHg 80%
22:00 +26°C° 0.1 mm 3 mps 760 mmHg 80%
23:00 +26°C° 0 mm 3 mps 759 mmHg 81%

Day after tomorrow, 21 October, Wednesday

Time Temperature Precipitation Wind Pressure Humidity
00:00 +26°C° 0 mm 3 mps 759 mmHg 83%
01:00 +26°C° 0 mm 3 mps 759 mmHg 84%
02:00 +26°C° 0.4 mm 3 mps 759 mmHg 84%
03:00 +26°C° 0.4 mm 4 mps 759 mmHg 83%
04:00 +26°C° 0.4 mm 4 mps 759 mmHg 83%
05:00 +25°C° 0.8 mm 4 mps 759 mmHg 84%
06:00 +25°C° 0.8 mm 4 mps 760 mmHg 85%
07:00 +25°C° 0.8 mm 4 mps 760 mmHg 86%
08:00 +25°C° 0 mm 4 mps 760 mmHg 84%
09:00 +25°C° 0 mm 3 mps 761 mmHg 81%
10:00 +25°C° 0 mm 2 mps 761 mmHg 79%
11:00 +26°C° 0 mm 3 mps 761 mmHg 78%
12:00 +26°C° 0 mm 3 mps 760 mmHg 78%
13:00 +26°C° 0 mm 3 mps 760 mmHg 77%
14:00 +26°C° 0 mm 3 mps 760 mmHg 77%
15:00 +27°C° 0 mm 3 mps 760 mmHg 77%
16:00 +27°C° 0 mm 3 mps 759 mmHg 77%
17:00 +26°C° 0 mm 3 mps 760 mmHg 78%
18:00 +26°C° 0 mm 3 mps 760 mmHg 79%
19:00 +26°C° 0 mm 3 mps 760 mmHg 80%
20:00 +26°C° 0 mm 3 mps 760 mmHg 80%
21:00 +25°C° 0 mm 3 mps 760 mmHg 81%
22:00 +25°C° 0 mm 3 mps 760 mmHg 82%
23:00 +25°C° 0 mm 3 mps 760 mmHg 83%

22 October, Thursday

Time Temperature Precipitation Wind Pressure Humidity
00:00 +25°C° 0 mm 3 mps 760 mmHg 85%
01:00 +24°C° 0 mm 3 mps 760 mmHg 87%
02:00 +25°C° 0.3 mm 3 mps 760 mmHg 87%
03:00 +25°C° 0.3 mm 3 mps 759 mmHg 87%
04:00 +25°C° 0.3 mm 2 mps 759 mmHg 87%
05:00 +25°C° 0.2 mm 3 mps 759 mmHg 86%
06:00 +25°C° 0.2 mm 3 mps 760 mmHg 86%
07:00 +25°C° 0.2 mm 3 mps 760 mmHg 85%
08:00 +27°C° 0.2 mm 4 mps 760 mmHg 80%
09:00 +28°C° 0.2 mm 4 mps 760 mmHg 74%
10:00 +30°C° 0.2 mm 5 mps 761 mmHg 69%
11:00 +30°C° 0.5 mm 5 mps 760 mmHg 65%
12:00 +32°C° 0.5 mm 5 mps 760 mmHg 62%
13:00 +32°C° 0.5 mm 5 mps 759 mmHg 58%
14:00 +32°C° 0.4 mm 5 mps 759 mmHg 60%
15:00 +32°C° 0.4 mm 5 mps 759 mmHg 61%
16:00 +30°C° 0.4 mm 5 mps 759 mmHg 63%
17:00 +29°C° 0 mm 5 mps 759 mmHg 68%
18:00 +28°C° 0 mm 4 mps 760 mmHg 73%
19:00 +26°C° 0 mm 3 mps 760 mmHg 78%
20:00 +26°C° 0 mm 3 mps 760 mmHg 80%
21:00 +26°C° 0 mm 3 mps 760 mmHg 82%
22:00 +25°C° 0 mm 3 mps 761 mmHg 84%
23:00 +25°C° 0 mm 3 mps 760 mmHg 84%

23 October, Friday

Time Temperature Precipitation Wind Pressure Humidity
00:00 +25°C° 0 mm 3 mps 760 mmHg 84%
01:00 +25°C° 0 mm 2 mps 760 mmHg 84%
02:00 +25°C° 0 mm 2 mps 759 mmHg 84%
03:00 +25°C° 0 mm 2 mps 759 mmHg 85%
04:00 +25°C° 0 mm 2 mps 759 mmHg 85%
05:00 +25°C° 0 mm 2 mps 759 mmHg 86%
06:00 +25°C° 0 mm 2 mps 759 mmHg 87%
07:00 +25°C° 0 mm 2 mps 760 mmHg 88%
08:00 +26°C° 0 mm 3 mps 760 mmHg 81%
09:00 +28°C° 0 mm 3 mps 760 mmHg 73%
10:00 +29°C° 0 mm 4 mps 760 mmHg 66%
11:00 +30°C° 0 mm 4 mps 760 mmHg 62%
12:00 +32°C° 0 mm 4 mps 759 mmHg 58%
13:00 +33°C° 0 mm 4 mps 759 mmHg 54%
14:00 +32°C° 0 mm 4 mps 759 mmHg 55%
15:00 +32°C° 0 mm 4 mps 758 mmHg 56%
16:00 +30°C° 0 mm 4 mps 758 mmHg 57%
17:00 +29°C° 0 mm 4 mps 758 mmHg 62%
18:00 +27°C° 0 mm 3 mps 759 mmHg 66%
19:00 +26°C° 0 mm 3 mps 759 mmHg 70%
20:00 +26°C° 0 mm 2 mps 759 mmHg 72%
21:00 +26°C° 0 mm 2 mps 760 mmHg 74%
22:00 +25°C° 0 mm 2 mps 760 mmHg 76%
23:00 +25°C° 0 mm 2 mps 760 mmHg 78%

24 October, Saturday

Time Temperature Precipitation Wind Pressure Humidity
00:00 +25°C° 0 mm 2 mps 759 mmHg 80%
01:00 +25°C° 0 mm 2 mps 759 mmHg 82%
02:00 +25°C° 0 mm 2 mps 759 mmHg 82%
03:00 +25°C° 0 mm 2 mps 759 mmHg 82%
04:00 +25°C° 0 mm 2 mps 758 mmHg 82%
05:00 +25°C° 0 mm 2 mps 759 mmHg 82%
06:00 +25°C° 0 mm 1 mps 759 mmHg 81%
07:00 +25°C° 0 mm 1 mps 759 mmHg 81%
08:00 +26°C° 0 mm 1 mps 759 mmHg 77%
09:00 +27°C° 0 mm 1 mps 760 mmHg 74%
10:00 +27°C° 0 mm 2 mps 760 mmHg 71%
11:00 +29°C° 0 mm 2 mps 760 mmHg 65%
12:00 +30°C° 0 mm 2 mps 759 mmHg 59%
13:00 +31°C° 0 mm 2 mps 759 mmHg 54%
14:00 +31°C° 0 mm 2 mps 759 mmHg 54%
15:00 +31°C° 0 mm 2 mps 758 mmHg 54%
16:00 +31°C° 0 mm 2 mps 758 mmHg 55%
17:00 +29°C° 0 mm 2 mps 758 mmHg 60%
18:00 +28°C° 0 mm 2 mps 758 mmHg 65%
19:00 +26°C° 0 mm 3 mps 759 mmHg 70%
20:00 +26°C° 0 mm 2 mps 759 mmHg 71%
21:00 +25°C° 0 mm 2 mps 759 mmHg 73%
22:00 +25°C° 0 mm 2 mps 759 mmHg 74%
23:00 +25°C° 0 mm 1 mps 759 mmHg 76%

25 October, Sunday

Time Temperature Precipitation Wind Pressure Humidity
00:00 +24°C° 0 mm 1 mps 759 mmHg 78%
01:00 +24°C° 0 mm 1 mps 759 mmHg 80%
02:00 +24°C° 0 mm 1 mps 759 mmHg 82%
03:00 +24°C° 0 mm 1 mps 759 mmHg 83%
04:00 +24°C° 0 mm 1 mps 759 mmHg 84%
05:00 +24°C° 0 mm 1 mps 760 mmHg 85%
06:00 +24°C° 0 mm 1 mps 760 mmHg 86%
07:00 +24°C° 0 mm 1 mps 760 mmHg 87%
08:00 +26°C° 0 mm 1 mps 761 mmHg 79%
09:00 +27°C° 0 mm 2 mps 761 mmHg 71%
10:00 +29°C° 0 mm 2 mps 761 mmHg 64%
11:00 +30°C° 0 mm 2 mps 761 mmHg 61%
12:00 +31°C° 0 mm 3 mps 761 mmHg 58%
13:00 +31°C° 0 mm 3 mps 760 mmHg 55%
14:00 +31°C° 0 mm 3 mps 760 mmHg 56%
15:00 +31°C° 0 mm 3 mps 760 mmHg 57%
16:00 +31°C° 0 mm 3 mps 759 mmHg 58%
17:00 +29°C° 0 mm 3 mps 760 mmHg 63%
18:00 +28°C° 0 mm 3 mps 760 mmHg 69%
19:00 +27°C° 0 mm 3 mps 761 mmHg 74%
20:00 +26°C° 0 mm 3 mps 761 mmHg 75%
21:00 +26°C° 0 mm 3 mps 761 mmHg 77%
22:00 +25°C° 0 mm 3 mps 761 mmHg 79%
23:00 +25°C° 0 mm 2 mps 761 mmHg 80%
Show more